Zurück zum Katalog

IUS R/B(1)

AktivHEO
NORAD 19549·ROCKET BODY·🇺🇸 United States

Gestartet Sep 29, 1988 von Cape Canaveral Space Force Station

Loading…

Nächste Überflüge (nächste 24 Stunden)

TLE

AktuellSource: Space-Track

Epoche: Sep 14, 2026, 02:13 UTC

1 19549U 88091C   26257.09302006  .00003693  00000-0  10159-2 0  9995
2 19549  26.3067 212.9870 6784734 279.0138  15.5259  2.91981569359062

Verfolge IUS R/B(1) in Echtzeit mit AllMySat

Download on the App Store